Location: ?
(35.3436°N, 139.3168°E)
Time: 21:36:00
(UTC+00:00)

SAR-Lupe-4 - Pass Details

Date: 29 October 2020
Orbit: 481 x 484 km, 98.2° (Epoch: 22 November)

Event Time Altitude Azimuth Distance (km) Brightness Sun altitude
Rises 19:47:02 0° 167° (SSE) 2,531 7.5 -15.9°
Reaches altitude 10° 19:49:05 10° 167° (SSE) 1,656 6.5 -15.5°
Maximum altitude 19:52:39 87° 252° (WSW) 488 3.5 -14.7°
Drops below altitude 10° 19:56:14 10° 347° (NNW) 1,666 6.1 -14.0°
Sets 19:58:18 0° 348° (NNW) 2,550 7.0 -13.6°
